Weather History for KCVN - October, 2013

Change the Weather History Date:

Wednesday, October 9, 2013

  Actual Average Record
Temperature  
Mean Temperature 63 °F -  
Max Temperature 82 °F 74 °F 93 °F (1979)
Min Temperature 44 °F 45 °F 26 °F (1970)
Degree Days  
Heating Degree Days 2    
Growing Degree Days 13 (Base 50)    
Moisture  
Dew Point 33 °F    
Average Humidity 36    
Maximum Humidity 57    
Minimum Humidity 14    
Precipitation  
Precipitation 0.00 in - - ()
Sea Level Pressure  
Sea Level Pressure 29.98 in    
Wind  
Wind Speed 7 mph (SSW)    
Max Wind Speed 22 mph    
Max Gust Speed 31 mph    
Visibility 10 miles    
Events      
Averages and records for this station are not official NWS values.
T = Trace of Precipitation, MM = Missing Value Source: NWS Daily Summary

Daily Weather History Graph

Daily Weather History Graph

Search for Another Location

Airport or City:

Trip Planner

Search our weather history database for the weather conditions in past years. The results will help you decide how hot, cold, wet, or windy it might be!

Date:

Astronomy

Oct. 09, 2013 Rise Set
Actual Time 6:53 AM MDT 6:25 PM MDT
Civil Twilight 6:28 AM MDT 6:50 PM MDT
Nautical Twilight 5:58 AM MDT 7:19 PM MDT
Astronomical Twilight 5:29 AM MDT 7:48 PM MDT
Moon 11:40 AM MDT (10/9) 10:11 PM MDT (10/9)
Length of Visible Light 12h 22m
Length of Day
11h 32m
Waxing Crescent, 26% of the Moon is Illuminated
Oct 9
Waxing Crescent
Oct 11
First Quarter
Oct 18
Full
Oct 26
Last Quarter
Nov 3
New

Hourly Weather History & Observations

Time (MDT) Temp. Windchill Dew Point Humidity Pressure Visibility Wind Dir Wind Speed Gust Speed Precip Events Conditions
12:15 AM 51.8 °F - 26.6 °F 38% 29.98 in 10.0 mi South 9.2 mph - N/A   Clear
12:35 AM 51.8 °F - 28.4 °F 41% 29.97 in 10.0 mi SSW 6.9 mph - N/A   Clear
12:55 AM 51.8 °F - 26.6 °F 38% 29.98 in 10.0 mi WSW 4.6 mph - N/A   Clear
1:15 AM 53.6 °F - 28.4 °F 38% 29.98 in 10.0 mi SW 3.5 mph - N/A   Clear
1:35 AM 53.6 °F - 28.4 °F 38% 29.98 in 10.0 mi SSW 5.8 mph - N/A   Clear
1:55 AM 48.2 °F - 28.4 °F 46% 29.98 in 10.0 mi Calm Calm - N/A   Clear
2:15 AM 51.8 °F - 28.4 °F 41% 29.98 in 10.0 mi South 4.6 mph - N/A   Clear
2:35 AM 51.8 °F - 28.4 °F 41% 29.98 in 10.0 mi South 6.9 mph - N/A   Clear
2:55 AM 48.2 °F - 30.2 °F 50% 29.97 in 10.0 mi SSW 8.1 mph - N/A   Clear
3:15 AM 48.2 °F - 30.2 °F 50% 29.96 in 10.0 mi South 5.8 mph - N/A   Clear
3:35 AM 50.0 °F - 30.2 °F 47% 29.97 in 10.0 mi SSW 3.5 mph - N/A   Clear
3:55 AM 50.0 °F - 30.2 °F 47% 29.97 in 10.0 mi Calm Calm - N/A   Clear
4:15 AM 46.4 °F 43.5 °F 30.2 °F 53% 29.97 in 10.0 mi SW 5.8 mph - N/A   Clear
4:35 AM 46.4 °F - 30.2 °F 53% 29.98 in 10.0 mi Calm Calm - N/A   Clear
4:55 AM 46.4 °F - 30.2 °F 53% 29.98 in 10.0 mi Calm Calm - N/A   Clear
5:15 AM 46.4 °F - 30.2 °F 53% 29.98 in 10.0 mi Calm Calm - N/A   Clear
5:35 AM 44.6 °F - 28.4 °F 53% 29.98 in 10.0 mi Calm Calm - N/A   Clear
5:55 AM 44.6 °F - 30.2 °F 57% 29.98 in 10.0 mi Calm Calm - N/A   Clear
6:15 AM 44.6 °F - 30.2 °F 57% 29.98 in 10.0 mi Calm Calm - N/A   Clear
6:35 AM 44.6 °F 43.1 °F 30.2 °F 57% 29.99 in 10.0 mi SE 3.5 mph - N/A   Clear
6:55 AM 44.6 °F 43.1 °F 30.2 °F 57% 29.99 in 10.0 mi SSE 3.5 mph - N/A   Clear
7:15 AM 44.6 °F 42.2 °F 30.2 °F 57% 29.99 in 10.0 mi South 4.6 mph - N/A   Clear
7:35 AM 48.2 °F - 32.0 °F 54% 30.00 in 10.0 mi Calm Calm - N/A   Clear
7:55 AM 51.8 °F - 33.8 °F 50% 30.00 in 10.0 mi South 4.6 mph - N/A   Clear
8:15 AM 53.6 °F - 35.6 °F 51% 30.01 in 10.0 mi South 5.8 mph - N/A   Clear
8:35 AM 55.4 °F - 35.6 °F 47% 30.01 in 10.0 mi South 4.6 mph - N/A   Clear
8:55 AM 59.0 °F - 35.6 °F 42% 30.02 in 10.0 mi South 6.9 mph - N/A   Clear
9:15 AM 60.8 °F - 37.4 °F 42% 30.02 in 10.0 mi South 8.1 mph - N/A   Clear
9:35 AM 64.4 °F - 37.4 °F 37% 30.02 in 10.0 mi South 8.1 mph - N/A   Clear
9:55 AM 66.2 °F - 37.4 °F 35% 30.03 in 10.0 mi SSW 10.4 mph - N/A   Clear
10:15 AM 68.0 °F - 39.2 °F 35% 30.02 in 10.0 mi SSW 9.2 mph - N/A   Clear
10:35 AM 71.6 °F - 39.2 °F 31% 30.02 in 10.0 mi SSW 8.1 mph - N/A   Clear
10:55 AM 69.8 °F - 39.2 °F 33% 30.02 in 10.0 mi SSW 11.5 mph - N/A   Clear
11:15 AM 73.4 °F - 41.0 °F 31% 30.02 in 10.0 mi SW 10.4 mph - N/A   Clear
11:35 AM 73.4 °F - 39.2 °F 29% 30.01 in 10.0 mi SSW 8.1 mph - N/A   Clear
11:55 AM 75.2 °F - 42.8 °F 31% 30.01 in 10.0 mi SSW 11.5 mph 17.3 mph N/A   Clear
12:15 PM 75.2 °F - 41.0 °F 29% 30.00 in 10.0 mi SW 11.5 mph - N/A   Clear
12:35 PM 78.8 °F - 41.0 °F 26% 29.99 in 10.0 mi SW 12.7 mph 18.4 mph N/A   Clear
12:55 PM 78.8 °F - 41.0 °F 26% 29.98 in 10.0 mi SSW 15.0 mph 27.6 mph N/A   Clear
1:15 PM 80.6 °F - 42.8 °F 26% 29.97 in 10.0 mi SSW 10.4 mph 20.7 mph N/A   Clear
1:35 PM 80.6 °F - 39.2 °F 23% 29.96 in 10.0 mi SSW 16.1 mph 19.6 mph N/A   Clear
1:55 PM 82.4 °F - 39.2 °F 21% 29.95 in 10.0 mi SSW 17.3 mph 23.0 mph N/A   Clear
2:15 PM 82.4 °F - 37.4 °F 20% 29.95 in 10.0 mi SW 19.6 mph 26.5 mph N/A   Clear
2:35 PM 82.4 °F - 37.4 °F 20% 29.94 in 10.0 mi SSW 21.9 mph 31.1 mph N/A   Clear
2:55 PM 82.4 °F - 35.6 °F 19% 29.94 in 10.0 mi SW 21.9 mph 27.6 mph N/A   Clear
3:15 PM 82.4 °F - 33.8 °F 17% 29.94 in 10.0 mi SW 21.9 mph 28.8 mph N/A   Clear
3:35 PM 82.4 °F - 30.2 °F 15% 29.94 in 10.0 mi SW 19.6 mph 27.6 mph N/A   Clear
3:55 PM 82.4 °F - 28.4 °F 14% 29.94 in 10.0 mi SW 19.6 mph 27.6 mph N/A   Clear
4:15 PM 80.6 °F - 30.2 °F 16% 29.95 in 10.0 mi WSW 21.9 mph 25.3 mph N/A   Clear
4:35 PM 80.6 °F - 30.2 °F 16% 29.95 in 10.0 mi SW 17.3 mph - N/A   Clear
4:55 PM 80.6 °F - 28.4 °F 15% 29.95 in 10.0 mi WSW 15.0 mph - N/A   Clear
5:15 PM 78.8 °F - 28.4 °F 16% 29.95 in 10.0 mi SW 13.8 mph 23.0 mph N/A   Clear
5:35 PM 78.8 °F - 30.2 °F 17% 29.95 in 10.0 mi SW 11.5 mph - N/A   Clear
5:55 PM 75.2 °F - 33.8 °F 22% 29.95 in 10.0 mi SSW 12.7 mph - N/A   Clear
6:15 PM 73.4 °F - 33.8 °F 23% 29.96 in 10.0 mi SW 6.9 mph - N/A   Clear
6:35 PM 69.8 °F - 33.8 °F 27% 29.96 in 10.0 mi SW 9.2 mph - N/A   Clear
6:55 PM 64.4 °F - 33.8 °F 32% 29.96 in 10.0 mi SSW 8.1 mph - N/A   Clear
7:15 PM 62.6 °F - 32.0 °F 32% 29.97 in 10.0 mi SSW 5.8 mph - N/A   Clear
7:35 PM 64.4 °F - 33.8 °F 32% 29.98 in 10.0 mi South 4.6 mph - N/A   Clear
7:55 PM 64.4 °F - 33.8 °F 32% 29.98 in 10.0 mi South 5.8 mph - N/A   Clear
8:15 PM 62.6 °F - 32.0 °F 32% 29.98 in 10.0 mi South 8.1 mph - N/A   Clear
8:35 PM 60.8 °F - 30.2 °F 31% 29.99 in 10.0 mi South 8.1 mph - N/A   Clear
8:55 PM 60.8 °F - 30.2 °F 31% 29.99 in 10.0 mi South 6.9 mph - N/A   Clear
9:15 PM 60.8 °F - 30.2 °F 31% 29.99 in 10.0 mi SSW 4.6 mph - N/A   Clear
9:35 PM 60.8 °F - 32.0 °F 34% 29.99 in 10.0 mi South 5.8 mph - N/A   Clear
9:55 PM 57.2 °F - 30.2 °F 36% 30.00 in 10.0 mi SSW 3.5 mph - N/A   Clear
10:15 PM 60.8 °F - 30.2 °F 31% 30.00 in 10.0 mi SSW 4.6 mph - N/A   Clear
10:35 PM 57.2 °F - 30.2 °F 36% 30.00 in 10.0 mi South 4.6 mph - N/A   Clear
10:55 PM 55.4 °F - 30.2 °F 38% 30.00 in 10.0 mi South 6.9 mph - N/A   Clear
11:15 PM 55.4 °F - 30.2 °F 38% 30.00 in 10.0 mi SSE 9.2 mph - N/A   Clear
11:35 PM 55.4 °F - 33.8 °F 44% 30.00 in 10.0 mi South 8.1 mph - N/A   Clear
11:55 PM 55.4 °F - 33.8 °F 44% 30.01 in 10.0 mi South 6.9 mph - N/A   Clear